Location: Firdgum
(53.2488°N, 5.5615°E)
Time: 21:22:37
(UTC+00:00)

Cosmos 1470 Rocket - Pass Details

Date: 08 December 2019
Orbit: 602 x 635 km, 82.5° (Epoch: 17 January)

Event Time Altitude Azimuth Distance (km) Brightness Sun altitude
Exits shadow 05:22:32 40° 304° (WNW) 943 4.0 -19.0°
Drops below altitude 10° 05:26:24 10° 360° (N) 2,034 6.1 -18.4°
Sets 05:28:46 0° 7° (N) 2,945 7.0 -18.1°
